Weather History for South Lake Tahoe, CA

Change the Weather History Date:

Wednesday, May 7, 2014

  Actual Average Record
Temperature  
Mean Temperature 43 °F 46 °F  
Max Temperature 56 °F 61 °F 75 °F (1992)
Min Temperature 29 °F 31 °F 15 °F (1977)
Degree Days  
Heating Degree Days 22 19  
Month to date heating degree days 111 141  
Since 1 July heating degree days 6152 7031  
Cooling Degree Days 0 0  
Month to date cooling degree days 0 0  
Year to date cooling degree days 0 0  
Moisture  
Dew Point 28 °F    
Average Humidity 58    
Maximum Humidity 85    
Minimum Humidity 30    
Precipitation  
Precipitation 0.00 in - 0.71 in (1979)
Month to date precipitation 0.16  
Year to date precipitation 11.26  
Sea Level Pressure  
Sea Level Pressure 29.89 in    
Wind  
Wind Speed 5 mph (SSW)    
Max Wind Speed 16 mph    
Max Gust Speed 26 mph    
Visibility 10 miles    
Events      
T = Trace of Precipitation, MM = Missing Value Source: NWS Daily Summary

Daily Weather History Graph

Daily Weather History Graph

Search for Another Location

Airport:

Trip Planner

Search our weather history database for the weather conditions in past years. The results will help you decide how hot, cold, wet, or windy it might be!

Date:

Astronomy

May. 07, 2014 Rise Set
Actual Time 5:55 AM PDT 7:58 PM PDT
Civil Twilight 5:25 AM PDT 8:27 PM PDT
Nautical Twilight 4:50 AM PDT 9:03 PM PDT
Astronomical Twilight 4:11 AM PDT 9:42 PM PDT
Moon 1:11 PM PDT (5/7) 1:53 AM PDT (5/7)
Length of Visible Light 15h 01m
Length of Day
14h 03m
First Quarter, 56% of the Moon is Illuminated
May 7
First Quarter
May 14
Full
May 21
Last Quarter
May 28
New
Jun 5
First Quarter

Hourly Weather History & Observations

Time (PDT) Temp. Windchill Dew Point Humidity Pressure Visibility Wind Dir Wind Speed Gust Speed Precip Events Conditions
12:53 AM 33.1 °F 30.0 °F 28.0 °F 82% 29.90 in 10.0 mi SSW 3.5 mph - N/A   Overcast
1:53 AM 32.0 °F 28.7 °F 27.0 °F 82% 29.89 in 10.0 mi Variable 3.5 mph - N/A   Clear
2:53 AM 30.9 °F - 26.1 °F 82% 29.86 in 10.0 mi Calm Calm - N/A   Clear
3:53 AM 30.9 °F 27.5 °F 25.0 °F 79% 29.86 in 10.0 mi WSW 3.5 mph - N/A   Partly Cloudy
4:53 AM 30.0 °F 26.5 °F 25.0 °F 82% 29.85 in 10.0 mi SSW 3.5 mph - N/A   Clear
5:53 AM 30.0 °F 25.2 °F 24.1 °F 79% 29.86 in 10.0 mi SW 4.6 mph - N/A   Clear
6:53 AM 30.9 °F 26.2 °F 25.0 °F 79% 29.87 in 10.0 mi South 4.6 mph - N/A   Clear
7:53 AM 37.0 °F 34.5 °F 28.0 °F 70% 29.86 in 10.0 mi South 3.5 mph - N/A   Clear
8:53 AM 46.0 °F - 28.0 °F 50% 29.85 in 10.0 mi Calm Calm - N/A   Clear
11:53 AM 55.0 °F - 25.0 °F 31% 29.85 in 10.0 mi Variable 5.8 mph - N/A   Mostly Cloudy
12:53 PM 54.0 °F - 24.1 °F 31% 29.86 in 10.0 mi SSW 12.7 mph 19.6 mph N/A   Scattered Clouds
1:53 PM 53.1 °F - 26.1 °F 35% 29.88 in 10.0 mi SSW 10.4 mph 18.4 mph N/A   Overcast
3:53 PM 54.0 °F - 26.1 °F 34% 29.88 in 10.0 mi SSW 9.2 mph - N/A   Mostly Cloudy
4:53 PM 53.1 °F - 27.0 °F 37% 29.89 in 10.0 mi SSW 12.7 mph 19.6 mph N/A   Mostly Cloudy
5:53 PM 52.0 °F - 28.9 °F 41% 29.91 in 10.0 mi SSW 10.4 mph 19.6 mph N/A   Partly Cloudy
6:53 PM 50.0 °F - 30.0 °F 46% 29.91 in 10.0 mi SSW 6.9 mph - N/A   Clear
7:53 PM 46.9 °F - 33.1 °F 59% 29.93 in 10.0 mi South 6.9 mph - N/A   Clear
8:53 PM 43.0 °F 41.3 °F 33.1 °F 68% 29.93 in 10.0 mi SSW 3.5 mph - N/A   Clear
9:53 PM 41.0 °F - 32.0 °F 70% 29.95 in 10.0 mi Calm Calm - N/A   Clear
10:53 PM 39.0 °F - 32.0 °F 76% 29.96 in 10.0 mi Calm Calm - N/A   Clear
11:53 PM 39.0 °F 36.8 °F 30.9 °F 73% 29.94 in 10.0 mi SSW 3.5 mph - N/A   Clear